Flag for Seychelles Weather past 2 weeks in Victoria, Seychelles

Now
86 °F

Scattered clouds.


Feels Like: 99 °F
Forecast: 73 / 83 °F
Wind: 2 mph from North

Location: National Airport


UV Index: 7 (High)

Visibility: N/A


Pressure: 29.83 "Hg

Humidity: 79%

Dew point: 79 °F

Location of VictoriaLocation

Historic Weather in Victoria

°F

Victoria temperature yesterday

Maximum temperature yesterday: 91 °F (at 4:00 PM)
Minimum temperature yesterday: 79 °F (at 2:00 AM)
Average temperature yesterday: 84 °F

Past Weeks' High & Low Weather Summary

 TemperatureHumidityPressure
High91 °F (Apr 15, 1:00 PM)94% (Apr 6, 9:00 AM)29.95 "Hg (Apr 6, 9:00 AM)
Low77 °F (Apr 6, 9:00 AM)52% (Apr 20, 4:00 PM)29.77 "Hg (Apr 20, 3:00 PM)
Average84 °F76%29.86 "Hg
* Reported Apr 6 8:00 AM — Apr 21 8:00 AM, Victoria, Weather by CustomWeather, © 2014

Note: Actual official high and low records may vary slightly from our data, if they occured in-between our weather recording intervals... More about our weather records

Advertising

Historic Weather Conditions — Data for Previous 24 hours

 ConditionsComfort  
Time TempWeatherWind HumidityBarometerVisibility
8:00 AM
Apr 21
86 °FScattered clouds.2 mph79%29.83 "HgN/A
7:00 AM81 °FPassing clouds.No wind84%29.80 "HgN/A
6:00 AM81 °FPassing clouds.No wind84%29.80 "HgN/A
5:00 AM81 °FPassing clouds.No wind84%29.77 "HgN/A
4:00 AM81 °FPassing clouds.No wind84%29.77 "HgN/A
3:00 AM81 °FPassing clouds.No wind84%29.77 "HgN/A
2:00 AM79 °FPassing clouds.No wind89%29.77 "HgN/A
1:00 AM81 °FPassing clouds.No wind84%29.80 "HgN/A
12:00 AM81 °FPassing clouds.2 mph79%29.83 "HgN/A
11:00 PM
Apr 20
81 °FPassing clouds.No wind79%29.83 "HgN/A
10:00 PM81 °FPassing clouds.No wind79%29.83 "HgN/A
9:00 PM84 °FPassing clouds.5 mph70%29.83 "HgN/A
8:00 PM82 °FPassing clouds.3 mph79%29.80 "HgN/A
7:00 PM84 °FPassing clouds.No wind74%29.80 "HgN/A
6:00 PM86 °FPartly sunny.No wind70%29.80 "HgN/A
5:00 PM88 °FPartly sunny.6 mph62%29.77 "HgN/A
4:00 PM91 °FPartly sunny.9 mph52%29.77 "HgN/A
3:00 PM90 °FScattered clouds.3 mph63%29.77 "HgN/A
2:00 PM88 °FPartly sunny.6 mph70%29.80 "HgN/A
1:00 PM88 °FPartly sunny.6 mph70%29.83 "HgN/A
12:00 PM90 °FScattered clouds.7 mph71%29.83 "HgN/A
11:00 AM90 °FPassing clouds.6 mph63%29.86 "HgN/A
10:00 AM88 °FPassing clouds.6 mph66%29.89 "HgN/A
9:00 AM88 °FPassing clouds.6 mph66%29.89 "HgN/A
Weather by CustomWeather, © 2014

See weather overview